Regional Weather Roundup
Issued by NWS

Home | Current Version | Previous Version | Graphics & Text | Print | Product List | Glossary On
Versions: 1 2 3 4 5 6 7 8 9 10 11 12 13 14 15 16 17 18 19 20 21 22 23 24 25 26 27 28 29 30 31 32 33 34 35 36 37 38 39 40 41 42 43 44 45 46 47 48 49 50
000
ASUS43 KLMK 300310
RWRKY
KENTUCKY REGIONAL WEATHER ROUNDUP
NATIONAL WEATHER SERVICE LOUISVILLE KY
1100 PM EDT MON SEP 29 2014

NOTE "FAIR" INDICATES FEW OR NO CLOUDS BELOW 12,000 FEET
WITH NO SIGNIFICANT WEATHER AND/OR OBSTRUCTIONS TO VISIBILITY.

KYZ001>023-026-027-061>063-070>075-300400-
WESTERN AND SOUTH CENTRAL KENTUCKY

CITY           SKY/WX    TMP DP  RH WIND       PRES   REMARKS
PADUCAH        CLEAR     60  57  89 SW3       29.95S
HENDERSON      NOT AVBL
OWENSBORO      CLEAR     66  57  72 CALM      29.96S
HOPKINSVILLE   CLEAR     66  57  73 N3        29.95S
BOWLING GREEN  CLEAR     66  58  75 CALM      29.96S
GLASGOW        CLEAR     61  58  90 CALM      29.96S
$$

KYZ024-025-028>034-038-045-046-053-300400-
NORTH CENTRAL KENTUCKY

CITY           SKY/WX    TMP DP  RH WIND       PRES   REMARKS
LOUISVILLE/SDF CLEAR     69  57  65 CALM      29.95S
LOUISVILLE/LOU CLEAR     65  56  72 CALM      29.95S
FORT KNOX      CLEAR     59  56  88 SW2       29.95S
$$

KYZ035>037-039>044-047>052-055>060-089>105-300400-
NORTHEAST KENTUCKY

CITY           SKY/WX    TMP DP  RH WIND       PRES   REMARKS
LEXINGTON      CLEAR     62  54  74 CALM      29.97S
COVINGTON      CLEAR     61  50  67 CALM      29.95S
FRANKFORT      CLEAR     60  54  80 CALM      29.95S
$$

KYZ054-064>069-076>088-106>120-300400-
SOUTHEAST KENTUCKY

CITY           SKY/WX    TMP DP  RH WIND       PRES   REMARKS
JACKSON        CLEAR     67  62  84 CALM      29.98S
LONDON         PTCLDY    65  61  87 CALM      29.98S
SOMERSET       CLEAR     63  63 100 CALM      29.98S
MIDDLESBORO    CLEAR     61  60  96 CALM      30.00S
MONTICELLO     CLEAR     59  58  96 CALM      29.99S FOG
$$




USA.gov is the U.S. government's official web portal to all federal, state and local government web resources and services.